Location: Unspecified
(0.0000°N, 0.0000°E)
Time: 20:44:30
(UTC+00:00)

COSMOS 1275 DEB - Pass Details

Date: 23 March 2026
Orbit: 902 x 973 km, 82.9° (Epoch: 8 April)

Event Time Altitude Azimuth Distance (km) Brightness Sun altitude
Rises 05:19:54 0° 161° (SSE) 3,524 ? -11.7°
Reaches altitude 10° 05:22:44 10° 149° (SSE) 2,584 ? -11.0°
Maximum altitude 05:27:34 27° 93° (E) 1,679 ? -9.8°
Drops below altitude 10° 05:32:26 10° 37° (NE) 2,600 ? -8.6°
Sets 05:35:16 0° 25° (NNE) 3,550 ? -7.8°
